• MPC Preparation (Info)

  • MPEC 2016-O112: 2015 BT518

    The following Minor Planet Electronic Circular may be linked-to from your own Web pages, but must not otherwise be redistributed electronically.

    A form allowing access to any MPEC is at the bottom of this page.


    Read MPEC 2016-O111 Read MPEC 2016-O113


    M.P.E.C. 2016-O112                               Issued 2016 July 17, 03:12 UT
    
         The Minor Planet Electronic Circulars contain information on unusual
             minor planets and routine data on comets.  They are published
        on behalf of Division F of the International Astronomical Union by the
              Minor Planet Center, Smithsonian Astrophysical Observatory,
                              Cambridge, MA 02138, U.S.A.
    
                 Prepared using the Tamkin Foundation Computer Network
    
                                  MPC@CFA.HARVARD.EDU
                URL https://www.minorplanetcenter.net/    ISSN 1523-6714
    
                                      2015 BT518
    
    Observations:
         K15Bp8T  C2011 01 16.64456 13 47 13.103-02 37 03.51         22.2 wLEO112F51
         K15Bp8T  C2011 01 16.64788 13 47 13.107-02 37 03.79         22.2 wLEO112F51
         K15Bp8T  C2011 01 16.64854 13 47 13.112-02 37 03.77         22.4 wLEO112F51
         K15Bp8T  C2011 01 16.65251 13 47 13.107-02 37 03.59         22.0 wLEO112F51
         K15Bp8T  C2011 01 16.65317 13 47 13.105-02 37 03.57         22.2 wLEO112F51
         K15Bp8T  C2011 01 16.65648 13 47 13.115-02 37 03.68         22.1 wLEO112F51
         K15Bp8T  C2011 01 16.65714 13 47 13.101-02 37 03.63         22.1 wLEO112F51
         K15Bp8T  C2013 04 10.42367 13 54 07.046-03 11 14.62         22.4 wLEO112F51
         K15Bp8T  C2013 04 10.43729 13 54 06.998-03 11 14.27         22.3 wLEO112F51
         K15Bp8T  C2013 04 10.45101 13 54 06.918-03 11 13.92         21.9 wLEO112F51
         K15Bp8T  C2013 04 10.46468 13 54 06.866-03 11 13.76         22.2 wLEO112F51
         K15Bp8T  C2013 05 03.37640 13 52 23.733-03 01 59.78         21.9 wLEO112F51
         K15Bp8T  C2013 05 03.38994 13 52 23.667-03 01 59.60         21.9 wLEO112F51
         K15Bp8T  C2013 05 03.40352 13 52 23.601-03 01 59.21         22.3 wLEO112F51
         K15Bp8T  C2013 05 03.41706 13 52 23.548-03 01 58.85         21.9 wLEO112F51
         K15Bp8T  C2014 06 29.27703 13 54 28.139-03 25 09.79         22.3 wLEO112F51
         K15Bp8T  C2014 06 29.28811 13 54 28.106-03 25 10.14         22.3 wLEO112F51
         K15Bp8T  C2014 06 29.29921 13 54 28.112-03 25 10.13         22.2 wLEO112F51
         K15Bp8T  C2014 06 29.31030 13 54 28.087-03 25 10.16         22.3 wLEO112F51
         K15Bp8T* C2015 01 28.61048 14 07 09.148-04 40 20.89         22.4 wLEO112F51
         K15Bp8T  C2015 01 28.62274 14 07 09.151-04 40 20.64         22.3 wLEO112F51
         K15Bp8T  C2015 01 28.63501 14 07 09.161-04 40 20.47         22.3 wLEO112F51
         K15Bp8T  C2015 01 28.64730 14 07 09.158-04 40 20.42         22.2 wLEO112F51
         K15Bp8T  C2015 01 30.58071 14 07 09.877-04 40 02.09         22.2 wLEO112F51
         K15Bp8T  C2015 01 30.59282 14 07 09.881-04 40 01.98         22.1 wLEO112F51
         K15Bp8T  C2015 01 30.60487 14 07 09.874-04 40 01.94         22.2 wLEO112F51
         K15Bp8T  C2015 01 30.61697 14 07 09.883-04 40 01.78         22.2 wLEO112F51
         K15Bp8T  C2015 02 24.58219 14 06 48.439-04 33 37.31         22.1 wLEO112F51
         K15Bp8T  C2015 02 24.59521 14 06 48.426-04 33 36.95         22.2 wLEO112F51
         K15Bp8T  C2015 02 24.60823 14 06 48.395-04 33 36.74         21.8 wLEO112F51
         K15Bp8T  C2015 02 24.62127 14 06 48.372-04 33 36.71         22.0 wLEO112F51
         K15Bp8T  C2015 03 21.48140 14 05 37.288-04 23 52.79         21.7 wLEO112F51
         K15Bp8T  C2015 03 21.49270 14 05 37.239-04 23 52.40         22.2 wLEO112F51
         K15Bp8T  C2015 03 21.50397 14 05 37.197-04 23 52.21         21.8 wLEO112F51
         K15Bp8T  C2015 03 21.51528 14 05 37.155-04 23 51.93         22.3 wLEO112F51
         K15Bp8T  C2015 03 21.51789 14 05 37.158-04 23 51.93         22.1 wLEO112F51
         K15Bp8T  C2015 03 21.53058 14 05 37.081-04 23 51.75         22.0 wLEO112F51
         K15Bp8T  C2015 03 21.54347 14 05 37.048-04 23 50.96         22.1 wLEO112F51
         K15Bp8T  C2015 03 21.55624 14 05 37.010-04 23 50.93         22.2 wLEO112F51
         K15Bp8T  C2015 04 21.45512 14 03 26.344-04 10 32.08         22.1 wLEO112F51
         K15Bp8T  C2015 04 21.46804 14 03 26.276-04 10 31.92         22.3 wLEO112F51
         K15Bp8T  C2015 04 21.51870 14 03 26.058-04 10 30.63         22.2 wLEO112F51
         K15Bp8T  C2015 04 21.53168 14 03 25.996-04 10 30.30         22.2 wLEO112F51
         K15Bp8T  C2015 05 25.31854 14 01 00.887-03 59 29.98         21.7 iLEO112F51
         K15Bp8T  C2015 05 25.33144 14 01 00.826-03 59 29.62         21.7 iLEO112F51
         K15Bp8T  C2015 05 25.34434 14 01 00.784-03 59 29.26         21.6 iLEO112F51
    
    Observer details:
    F51 Pan-STARRS 1, Haleakala.  Observers B. Gibson, T. Goggia, N. Primak,
        A. Schultz, M. Willman.  Measurers K. Chambers, S. Chastel, Y.-T. Chen,
        L. Denneau, H. Flewelling, M. Holman, M. Huber, R. Jedicke, M. Lackner,
        E. Lilly, H.-W. Lin, E. Magnier, M. Micheli, M. Payne, P. Veres,
        R. Wainscoat, C. Waters, R. Weryk.  1.8-m Ritchey-Chretien + CCD.
    
    Orbital elements:
    2015 BT518
    Epoch 2016 July 31.0 TT = JDT 2457600.5                 MPC
    M  45.07026              (2000.0)            P               Q
    n   0.00339144     Peri.   60.39904     -0.94263029     -0.30406976
    a  43.8746039      Node   101.60911     +0.23633366     -0.89935232
    e   0.0548649      Incl.    8.08726     +0.23578494     -0.31417670
    P 291              H    5.7           G   0.15           U   3
    Residuals in seconds of arc
    110116 F51  0.0   0.2+    140629 F51  0.2-  0.1-    150321 F51  0.1+  0.2+
    110116 F51  0.0   0.1-    140629 F51  0.2+  0.0     150321 F51  0.1+  0.1+
    110116 F51  0.1+  0.1-    140629 F51  0.0   0.0     150321 F51  0.1+  0.1+
    110116 F51  0.0   0.0     150128 F51  0.0   0.1-    150321 F51  0.3+  0.0
    110116 F51  0.1-  0.0     150128 F51  0.0   0.0     150321 F51  0.2-  0.2-
    110116 F51  0.0   0.1-    150128 F51  0.1+  0.1+    150321 F51  0.1+  0.3+
    110116 F51  0.2-  0.0     150128 F51  0.0   0.0     150321 F51  0.2+  0.0
    130410 F51  0.0   0.1+    150130 F51  0.0   0.1+    150421 F51  0.1-  0.1+
    130410 F51  0.2+  0.1+    150130 F51  0.0   0.1+    150421 F51  0.2-  0.1-
    130410 F51  0.1-  0.1+    150130 F51  0.2-  0.0     150421 F51  0.0   0.0
    130410 F51  0.0   0.1-    150130 F51  0.1-  0.0     150421 F51  0.0   0.0
    130503 F51  0.1+  0.0     150224 F51  0.2-  0.1-    150525 F51  0.0   0.4-
    130503 F51  0.0   0.1-    150224 F51  0.0   0.0     150525 F51  0.2-  0.2-
    130503 F51  0.1-  0.0     150224 F51  0.1-  0.0     150525 F51  0.1-  0.0
    130503 F51  0.0   0.1+    150224 F51  0.0   0.2-
    140629 F51  0.1+  0.2+    150321 F51  0.2+  0.1+
    
    Ephemeris:
    2015 BT518               a,e,i = 43.87, 0.05, 8                  q = 41.467
    Date    TT    R. A. (2000) Decl.     Delta      r     Elong.  Phase     V
    2016 06 17    14 04 49.4 -04 27 51  41.6597 42.2399   124.3     1.1    22.1
    ...
    2016 07 02    14 04 22.0 -04 28 09  41.8828 42.2416   110.0     1.3    22.1
    ...
    2016 07 10    14 04 14.8 -04 29 05  42.0118 42.2424   102.4     1.3    22.1
    ...
    2016 07 16    14 04 13.0 -04 30 08  42.1113 42.2431    96.8     1.4    22.1
    2016 07 17    14 04 13.0 -04 30 21  42.1280 42.2432    95.8     1.4    22.1
    2016 07 18    14 04 13.1 -04 30 33  42.1447 42.2433    94.9     1.4    22.1
    ...
    2016 07 24    14 04 15.5 -04 32 00  42.2455 42.2439    89.2     1.4    22.1
    ...
    2016 08 01    14 04 23.5 -04 34 22  42.3796 42.2448    81.7     1.4    22.2
    ...
    2016 08 16    14 04 53.5 -04 40 00  42.6222 42.2465    67.6     1.3    22.2
    
    A. U. Tomatic                (C) Copyright 2016 MPC           M.P.E.C. 2016-O112
    

    Read MPEC 2016-O111 Read MPEC 2016-O113


    MPEC number:

    Enter an MPEC number in one of the following forms:

    • 1997-B01 (the full form)
    • J97B01 (the packed version of the full form)
    • B01 (the abbreviated form)